Observations for Trim Market St
| Time | AQI | Temp °C | Hum % | Pres Pa | CO μg/m³ | H₂S μg/m³ | NO μg/m³ | NO₂ μg/m³ | O₃ μg/m³ | SO₂ μg/m³ | PM1 μg/m³ | PM2.5 μg/m³ | PM10 μg/m³ |
|---|---|---|---|---|---|---|---|---|---|---|---|---|---|
| Sunday 23 August 2026 | |||||||||||||
| 20:22 | 3 | 17.4 | 52 | 56,171 | 0.07 | 0 | 1.18 | 28.99 | 61.1 | 0 | 0 | 3.39 | 3.86 |
| 20:21 | 3 | 17.4 | 52 | 56,329 | 0.07 | 0 | 1.16 | 31.58 | 57.83 | 0 | 0 | 2.88 | 3.13 |
| 20:20 | 3 | 17.5 | 52 | 56,539 | 0.04 | 0 | 1.2 | 17.83 | 78.75 | 0 | 0 | 1.86 | 3.85 |
| 20:19 | 3 | 17.5 | 52 | 56,800 | 0.04 | 0 | 1.24 | 17.83 | 73.69 | 0 | 0 | 2.38 | 3.11 |
| 20:18 | 3 | 17.6 | 52 | 57,052 | 0.04 | 0 | 1.2 | 23.33 | 71.38 | 0 | 0 | 2.38 | 2.62 |
| 20:16 | 3 | 17.6 | 51 | 57,635 | 0.08 | 0 | 1.34 | 30.66 | 63.32 | 0 | 0 | 3.42 | 4.58 |
| 20:14 | 3 | 17.7 | 51 | 58,333 | 0.08 | 0.05 | 1.29 | 27.97 | 60.07 | 0 | 0 | 2.41 | 2.65 |
| 20:12 | 3 | 17.8 | 51 | 59,014 | 0.07 | 0.31 | 1.29 | 34.77 | 51.75 | 0 | 0 | 2.42 | 2.66 |
| 20:11 | 3 | 17.8 | 51 | 59,306 | 0.03 | 0 | 1.18 | 21.16 | 76.03 | 0 | 0 | 2.42 | 2.67 |
| 20:10 | 3 | 17.9 | 50 | 59,614 | 0.01 | 0 | 1.15 | 17.01 | 71.82 | 0 | 0.71 | 2.95 | 3.81 |
| 20:04 | 3 | 18.2 | 50 | 60,979 | 0.15 | 0.39 | 0.9 | 17.38 | 79.45 | 0 | 0 | 2.98 | 3.04 |
| 20:03 | 3 | 18.2 | 50 | 61,230 | 0.07 | 0.37 | 0.94 | 16.71 | 77.94 | 0 | 0 | 2.99 | 3.04 |
| 20:00 | 3 | 18.4 | 49 | 61,943 | 0 | 0 | 1.14 | 16.31 | 80.27 | 0 | 0.71 | 2.49 | 2.74 |
| 19:57 | 3 | 18.5 | 49 | 62,543 | 0 | 0 | 1.24 | 19.32 | 69.22 | 0 | 0.71 | 3.54 | 4.51 |
| 19:53 | 3 | 18.8 | 48 | 63,118 | 0.02 | 0.21 | 1.11 | 19.38 | 66.23 | 0 | 0.71 | 3.56 | 3.75 |
| 19:52 | 3 | 18.8 | 48 | 63,246 | 0 | 0.61 | 1.09 | 22.39 | 73.95 | 0 | 0 | 3.06 | 3.36 |
| 19:51 | 3 | 18.9 | 48 | 63,404 | 0 | 0.4 | 1.13 | 16.08 | 80.69 | 0 | 0.71 | 3.07 | 3.37 |
| 19:50 | 3 | 18.9 | 48 | 63,543 | 0 | 0.13 | 1.06 | 15.45 | 82.91 | 0 | 0 | 2.55 | 2.81 |
| 19:49 | 3 | 19 | 48 | 63,657 | 0 | 0.55 | 1.08 | 17.08 | 75.28 | 0 | 0.71 | 2.56 | 2.82 |
| 19:48 | 3 | 19.1 | 47 | 63,772 | 0 | 0.5 | 1.19 | 20.73 | 69.54 | 0 | 0.71 | 3.08 | 3.39 |